Terminal Aerodrome Forecast
Issued by NWS Twin Cities, MN

Home | Current Version | Previous Version | Graphics & Text | Print | Product List | Glossary On
Versions: 1 2 3 4 5 6 7 8 9 10 11 12 13 14 15 16 17 18 19 20 21 22 23 24 25 26 27 28 29 30 31
000
FTUS43 KMPX 222336
TAFMSP
TAF
KMSP 222336Z 2300/2406 02010KT P6SM SCT014 OVC022
     FM230500 07007KT P6SM SCT009 OVC014
      TEMPO 2310/2314 BKN009
     FM231700 11013KT P6SM OVC025=

USA.gov is the U.S. government's official web portal to all federal, state and local government web resources and services.